Powrót do katalogu

STARLINK-30924

AktywnyŁącznośćVLEO
NORAD 58412·PAYLOAD·🇺🇸 United States

Wystrzelony Nov 22, 2023 z Cape Canaveral Space Force Station

Loading…

Następne Przeloty (najbliższe 24 godziny)

TLE

ŚwieżeSource: CelesTrak SupGP

Epoka: Sep 14, 2026, 22:42 UTC

1 58412C 23180L   26257.94631944  .00216970  00000+0  87682-3 0  2571
2 58412  42.9811 237.8679 0027362 135.4595 153.3823 15.84601043    19

Śledź STARLINK-30924 w czasie rzeczywistym z AllMySat

Download on the App Store